EW9345 Weather Reports


time (UTC)temp
F
wind
direction
speed
knots
gust
knots
rain 1hr
in
rain 24hr
in
rain mn
in
humidity
%
barometer
mb
20260506143219 71 230 0.0 0.0 0.00 0.00 0.00 63 1007.2
20260506142718 70 122 0.0 0.0 0.00 0.00 0.00 63 1007.3
20260506142217 70 221 0.0 0.0 0.00 0.00 0.00 64 1007.4
20260506141717 70 203 0.0 0.0 0.00 0.00 0.00 63 1007.5
20260506141602 70 187 0.0 0.0 0.00 0.00 0.00 64 1007.4
20260506141556 70 228 0.0 0.0 0.00 0.00 0.00 63 1007.4
20260506140209 70 212 0.0 0.0 0.00 0.00 0.00 64 1007.4
20260506135659 70 273 0.0 0.0 0.00 0.00 0.00 64 1007.4
20260506135152 69 207 0.0 0.0 0.00 0.00 0.00 64 1007.5
20260506134646 69 156 0.0 0.0 0.00 0.00 0.00 64 1007.5
20260506134136 69 165 0.0 0.0 0.00 0.00 0.00 64 1007.6
20260506133631 69 229 0.0 0.0 0.00 0.00 0.00 64 1007.7
20260506133124 69 225 0.0 0.0 0.00 0.00 0.00 64 1007.5
20260506132614 69 61 0.0 0.0 0.00 0.00 0.00 65 1007.5
20260506132401 69 167 0.0 0.0 0.00 0.00 0.00 65 1007.6
20260506131854 69 186 0.0 0.0 0.00 0.00 0.00 66 1007.7
20260506131053 69 231 0.0 0.0 0.00 0.00 0.00 66 1007.5
20260506130546 68 136 0.0 0.0 0.00 0.00 0.00 66 1007.6
20260506130335 68 212 0.0 0.0 0.00 0.00 0.00 67 1007.3
20260506125530 68 190 0.0 0.0 0.00 0.00 0.00 67 1007.3
20260506125024 68 170 0.0 0.0 0.00 0.00 0.00 67 1007.2
20260506124518 68 248 0.0 0.0 0.00 0.00 0.00 68 1007.3
20260506124301 67 192 0.0 0.0 0.00 0.00 0.00 68 1007.3
20260506123502 67 350 0.0 0.0 0.00 0.00 0.00 69 1007.3
20260506122957 67 169 0.0 0.0 0.00 0.00 0.00 69 1007.4
20260506122446 67 95 0.0 0.0 0.00 0.00 0.00 69 1007.5
20260506121940 67 220 0.0 0.0 0.00 0.00 0.00 69 1007.6
20260506121729 67 209 0.0 0.0 0.00 0.00 0.00 69 1007.5
20260506120924 67 112 0.0 0.0 0.00 0.00 0.00 69 1007.6
20260506120418 67 150 0.0 0.0 0.00 0.00 0.00 69 1007.8
20260506115912 67 158 0.0 0.0 0.00 0.00 0.00 69 1007.9
20260506115406 67 211 0.0 0.0 0.00 0.00 0.00 70 1007.9
20260506114903 67 184 0.0 0.0 0.00 0.00 0.00 71 1007.9
20260506114403 67 146 0.0 0.0 0.00 0.00 0.00 71 1007.8
20260506113904 67 193 0.0 0.0 0.00 0.00 0.00 71 1007.9
20260506113402 67 191 0.0 0.0 0.00 0.00 0.00 71 1007.8
20260506112859 66 203 0.0 0.0 0.00 0.00 0.00 72 1007.8
20260506112400 66 162 0.0 0.0 0.00 0.00 0.00 73 1007.9
20260506112158 66 221 0.0 0.0 0.00 0.00 0.00 73 1007.9
20260506111655 65 160 0.0 0.0 0.00 0.00 0.00 73 1007.8
20260506110901 65 231 0.0 0.0 0.00 0.00 0.00 74 1007.7
20260506110356 65 154 0.0 0.0 0.00 0.00 0.00 74 1007.7
20260506105857 65 86 0.0 0.0 0.00 0.00 0.00 74 1007.7
20260506105357 0 0.0 0.0 0.00 0.00 0.00 1007.6
20260506104858 0 0.0 0.0 0.00 0.00 0.00 1007.7
20260506104354 0 0.0 0.0 0.00 0.00 0.00 1007.7
20260506103807 0 0.0 0.0 0.00 0.00 0.00 1007.7
20260506103252 0 0.0 0.0 0.00 0.00 0.00 1007.8
20260506102702 0 0.0 0.0 0.00 0.00 0.00 1007.6
20260506102159 0 0.0 0.0 0.00 0.00 0.00 1007.6
20260506101656 0 0.0 0.0 0.00 0.00 0.00 1007.5
20260506101109 0 0.0 0.0 0.00 0.00 0.00 1007.4
20260506100557 0 0.0 0.0 0.00 0.00 0.00 1007.4
20260506100223 0 0.0 0.0 0.00 0.00 0.00 1007.4
20260506095501 0 0.0 0.0 0.00 0.00 0.00 1007.4
20260506094906 0 0.0 0.0 0.00 0.00 0.00 1007.4
20260506094352 0 0.0 0.0 0.00 0.00 0.00 1007.4
20260506093758 0 0.0 0.0 0.00 0.00 0.00 1007.4
20260506093200 0 0.0 0.0 0.00 0.00 0.00 1007.4
20260506092927 0 0.0 0.0 0.00 0.00 0.00 1007.4
20260506092106 0 0.0 0.0 0.00 0.00 0.00 1007.4
20260506091544 0 0.0 0.0 0.00 0.00 0.00 1007.5
20260506091001 65 0.0 0.0 0.00 0.00 0.00 73 1007.5
20260506090454 65 197 0.0 0.0 0.00 0.00 0.00 73 1007.5
20260506085905 65 197 0.0 0.0 0.00 0.00 0.00 73 1007.5
20260506085330 65 197 0.0 0.0 0.00 0.00 0.00 73 1007.6
20260506084829 65 200 0.0 0.0 0.00 0.00 0.00 74 1007.6
20260506084330 65 166 0.0 0.0 0.00 0.00 0.00 74 1007.6
20260506083825 65 243 0.0 0.0 0.00 0.00 0.00 74 1007.6
20260506083324 65 167 0.0 0.0 0.00 0.00 0.00 73 1007.7
20260506082825 66 160 0.0 0.0 0.00 0.00 0.00 73 1007.6
20260506082323 66 163 0.0 0.0 0.00 0.00 0.00 73 1007.6
20260506081823 66 106 0.0 0.0 0.00 0.00 0.00 73 1007.7
20260506081622 66 157 0.0 0.0 0.00 0.00 0.00 72 1007.7
20260506080824 66 169 0.0 0.0 0.00 0.00 0.00 72 1007.7
20260506080323 66 131 0.0 0.0 0.00 0.00 0.00 72 1007.7
20260506073306 67 148 0.0 0.0 0.00 0.00 0.00 70 1007.8
20260506072808 67 142 0.0 0.0 0.00 0.00 0.00 70 1007.7
20260506072306 67 114 0.0 0.0 0.00 0.00 0.00 70 1007.6
20260506071806 67 165 0.0 0.0 0.00 0.00 0.00 70 1007.8
20260506071308 67 164 0.0 0.0 0.00 0.00 0.00 69 1007.8
20260506070807 67 122 0.0 0.0 0.00 0.00 0.00 69 1008.0
20260506070307 67 169 0.0 0.0 0.00 0.00 0.00 69 1007.9
20260506062305 67 117 0.0 0.0 0.00 0.00 0.00 67 1007.8
20260506062057 68 153 0.0 0.0 0.00 0.00 0.00 66 1007.9
20260506061303 68 340 0.0 0.0 0.00 0.00 0.00 66 1007.9
20260506060802 68 146 0.0 0.0 0.00 0.00 0.00 66 1007.8
20260506060304 68 194 0.0 0.0 0.00 0.00 0.00 66 1007.8
20260506051305 69 243 0.0 0.0 0.00 0.00 0.00 63 1008.3
20260506050805 69 222 0.0 0.0 0.00 0.00 0.00 63 1008.5
20260506050305 69 206 0.0 0.0 0.00 0.00 0.00 62 1008.4
20260506044854 69 216 0.0 0.0 0.00 0.00 0.00 61 1008.3
20260506044835 69 207 0.0 0.0 0.00 0.00 0.00 61 1008.3
20260506044054 69 158 0.0 0.0 0.00 0.00 0.00 61 1008.3
20260506043302 69 181 0.0 0.0 0.00 0.00 0.00 60 1008.4
20260506042759 69 261 0.0 0.0 0.00 0.00 0.00 60 1008.4
20260506042259 69 195 0.0 0.0 0.00 0.00 0.00 60 1008.4
20260506041759 69 198 0.0 0.0 0.00 0.00 0.00 59 1008.4
20260506041258 70 145 0.0 0.0 0.00 0.00 0.00 59 1008.3
20260506040756 70 202 0.0 0.0 0.00 0.00 0.00 58 1008.3
20260506040601 70 182 0.0 0.0 0.00 0.00 0.00 58 1008.3
20260506035755 70 185 0.0 0.0 0.00 0.00 0.00 58 1008.3
20260506035255 70 162 0.0 0.0 0.00 0.00 0.00 57 1008.2
20260506034752 70 212 0.0 0.0 0.00 0.00 0.00 57 1008.3
20260506034253 71 198 0.0 0.0 0.00 0.00 0.00 56 1008.4
20260506033752 71 221 0.0 0.0 0.00 0.00 0.00 56 1008.4
20260506033253 71 216 0.0 0.0 0.00 0.00 0.00 56 1008.3
20260506032752 71 225 0.0 0.0 0.00 0.00 0.00 55 1008.3
20260506032254 71 193 0.0 0.0 0.00 0.00 0.00 55 1008.3
20260506031751 71 139 0.0 0.0 0.00 0.00 0.00 55 1008.2
20260506031602 71 248 0.0 0.0 0.00 0.00 0.00 54 1008.1
20260506030747 71 190 0.0 0.0 0.00 0.00 0.00 54 1008.2
20260506030242 71 227 0.0 0.0 0.00 0.00 0.00 54 1008.1
20260506025737 72 134 0.0 0.0 0.00 0.00 0.00 54 1008.0
20260506025235 72 195 0.0 0.0 0.00 0.00 0.00 54 1008.0
20260506024735 72 193 0.0 0.0 0.00 0.00 0.00 54 1008.0
20260506024233 72 217 0.0 0.0 0.00 0.00 0.00 53 1008.1
20260506023733 72 184 0.0 0.0 0.00 0.00 0.00 53 1008.2
20260506023528 72 91 0.0 0.0 0.00 0.00 0.00 53 1008.2
20260506022732 72 145 0.0 0.0 0.00 0.00 0.00 53 1008.2
20260506022233 72 198 0.0 0.0 0.00 0.00 0.00 53 1008.1
20260506021733 72 196 0.0 0.0 0.00 0.00 0.00 52 1008.1
20260506021232 73 224 0.0 0.0 0.00 0.00 0.00 52 1008.1
20260506020734 73 222 0.0 0.0 0.00 0.00 0.00 52 1008.1
20260506020233 73 211 0.0 0.0 0.00 0.00 0.00 52 1008.1
20260506015736 73 152 0.0 0.0 0.00 0.00 0.00 51 1008.0
20260506015235 73 206 0.0 0.0 0.00 0.00 0.00 51 1008.1
20260506014730 73 143 0.0 0.0 0.00 0.00 0.00 51 1008.0
20260506014224 73 174 0.0 0.0 0.00 0.00 0.00 51 1008.0
20260506013713 73 174 0.0 0.0 0.00 0.00 0.00 50 1007.9
20260506013207 73 215 0.0 0.0 0.00 0.00 0.00 50 1007.8
20260506012702 74 165 0.0 0.0 0.00 0.00 0.00 49 1007.8
20260506012149 75 342 0.0 0.0 0.00 0.00 0.00 47 1007.8
20260506011642 76 137 0.0 0.0 0.00 0.00 0.00 44 1007.7
20260506011137 77 222 0.0 0.0 0.00 0.00 0.00 41 1007.6
20260506010626 77 171 0.0 0.0 0.00 0.00 0.00 40 1007.5
20260506010121 77 213 0.0 0.0 0.00 0.00 0.00 39 1007.3
20260506005615 77 245 0.0 0.0 0.00 0.00 0.00 39 1007.2
20260506005105 78 143 0.0 0.0 0.00 0.00 0.00 39 1007.2
20260506004606 78 148 0.0 0.0 0.00 0.00 0.00 38 1007.1
20260506004405 78 221 0.0 0.0 0.00 0.00 0.00 38 1007.1
20260506003602 78 217 0.0 0.0 0.00 0.00 0.00 38 1007.1
20260506003103 78 181 0.0 0.0 0.00 0.00 0.00 38 1007.1
20260506002603 78 247 0.0 0.0 0.00 0.00 0.00 37 1007.0
20260506002104 78 235 0.0 0.0 0.00 0.00 0.00 37 1006.9
20260506001857 79 163 0.0 0.0 0.00 0.00 0.00 37 1006.9
20260506001357 79 240 0.0 0.0 0.00 0.00 0.00 35 1006.9
20260506000602 79 242 0.0 0.0 0.00 0.00 0.00 34 1006.9
20260506000105 80 193 0.0 0.0 0.00 0.00 0.00 33 1006.7
20260505235605 80 226 0.0 0.0 0.00 0.00 0.00 33 1006.7
20260505235106 80 217 0.0 0.0 0.00 0.00 0.00 32 1006.7
20260505234604 80 206 0.0 0.0 0.00 0.00 0.00 32 1006.6
20260505234105 80 281 0.0 0.0 0.00 0.00 0.00 32 1006.4
20260505233847 80 210 0.0 0.0 0.00 0.00 0.00 31 1006.5
20260505233340 80 244 0.0 0.0 0.00 0.00 0.00 30 1006.4
20260505232544 81 222 0.0 0.0 0.00 0.00 0.00 30 1006.5
20260505232033 81 193 0.0 0.0 0.00 0.00 0.00 30 1006.3
20260505231527 81 215 0.0 0.0 0.00 0.00 0.00 29 1006.2
20260505231027 81 203 0.0 0.0 0.00 0.00 0.00 29 1006.1
20260505230522 81 210 0.0 0.0 0.00 0.00 0.00 29 1006.1
20260505230022 81 230 0.0 0.0 0.00 0.00 0.00 28 1006.1
20260505225523 82 205 0.0 0.0 0.00 0.00 0.00 27 1006.0
20260505225020 82 198 0.0 0.0 0.00 0.00 0.00 27 1005.9
20260505224621 82 205 0.0 0.0 0.00 0.00 0.00 27 1005.8
20260505224556 82 213 0.0 0.0 0.00 0.00 0.00 27 1005.8
20260505223519 82 260 0.0 0.0 0.00 0.00 0.00 26 1005.8
20260505223322 82 200 0.0 0.0 0.00 0.00 0.00 27 1005.8
20260505222518 82 186 0.0 0.0 0.00 0.00 0.00 27 1005.7
20260505222319 82 117 0.0 0.0 0.00 0.00 0.00 27 1005.8
20260505221816 82 286 0.0 0.0 0.00 0.00 0.00 26 1005.8
20260505221020 82 180 0.0 0.0 0.00 0.00 0.00 27 1005.7
20260505220519 82 229 0.0 0.0 0.00 0.00 0.00 26 1005.7
20260505220014 83 200 0.0 0.0 0.00 0.00 0.00 27 1005.6
20260505215514 83 255 0.0 0.0 0.00 0.00 0.00 26 1005.4
20260505215015 84 201 0.0 0.0 0.00 0.00 0.00 27 1005.6
20260505214512 84 214 0.0 0.0 0.00 0.00 0.00 28 1005.3
20260505214307 84 220 0.0 0.0 0.00 0.00 0.00 28 1005.3
20260505213513 84 222 0.0 0.0 0.00 0.00 0.00 27 1005.4
20260505213011 84 232 0.0 0.0 0.00 0.00 0.00 27 1005.4
20260505212806 83 291 0.0 0.0 0.00 0.00 0.00 28 1005.3
20260505212010 84 195 0.0 0.0 0.00 0.00 0.00 27 1005.4
20260505211513 84 208 0.0 0.0 0.00 0.00 0.00 27 1005.2
20260505211009 84 219 0.0 0.0 0.00 0.00 0.00 27 1005.2
20260505210510 84 209 0.0 0.0 0.00 0.00 0.00 28 1005.2
20260505210009 84 230 0.0 0.0 0.00 0.00 0.00 27 1005.2
20260505205510 84 205 0.0 0.0 0.00 0.00 0.00 27 1005.3
20260505205011 84 224 0.0 0.0 0.00 0.00 0.00 27 1005.4
20260505204803 85 110 0.0 0.0 0.00 0.00 0.00 28 1005.2
20260505203958 85 128 0.0 0.0 0.00 0.00 0.00 29 1005.1
20260505203455 85 186 0.0 0.0 0.00 0.00 0.00 29 1005.2
20260505202952 85 244 0.0 0.0 0.00 0.00 0.00 28 1005.3
20260505202451 85 155 0.0 0.0 0.00 0.00 0.00 29 1005.1
20260505202252 84 65 0.0 0.0 0.00 0.00 0.00 29 1005.2
20260505201452 84 127 0.0 0.0 0.00 0.00 0.00 28 1005.2
20260505200951 84 232 0.0 0.0 0.00 0.00 0.00 28 1005.2
20260505200841 85 266 0.0 0.0 0.00 0.00 0.00 29 1005.4
20260505200527 85 307 0.0 0.0 0.00 0.00 0.00 28 1005.3
20260505195454 85 160 0.0 0.0 0.00 0.00 0.00 29 1005.4
20260505195251 84 233 0.0 0.0 0.00 0.00 0.00 29 1005.5
20260505194455 85 162 0.0 0.0 0.00 0.00 0.00 29 1005.6
20260505193953 84 290 0.0 0.0 0.00 0.00 0.00 29 1005.6
20260505193452 85 160 0.0 0.0 0.00 0.00 0.00 28 1005.8
20260505192947 84 171 0.0 0.0 0.00 0.00 0.00 29 1005.8
20260505192441 84 199 0.0 0.0 0.00 0.00 0.00 27 1006.2
20260505191936 84 148 0.0 0.0 0.00 0.00 0.00 28 1006.0
20260505191437 84 207 0.0 0.0 0.00 0.00 0.00 28 1006.0
20260505191236 84 174 0.0 0.0 0.00 0.00 0.00 29 1006.1
20260505190436 84 239 0.0 0.0 0.00 0.00 0.00 30 1006.2
20260505185936 83 207 0.0 0.0 0.00 0.00 0.00 31 1006.3
20260505185439 83 192 0.0 0.0 0.00 0.00 0.00 31 1006.5
20260505184936 83 225 0.0 0.0 0.00 0.00 0.00 32 1006.5
20260505184436 83 215 0.0 0.0 0.00 0.00 0.00 32 1006.7
20260505183936 84 150 0.0 0.0 0.00 0.00 0.00 32 1006.7
20260505183435 84 210 0.0 0.0 0.00 0.00 0.00 33 1006.8
20260505182937 84 229 0.0 0.0 0.00 0.00 0.00 32 1006.7
20260505182436 84 72 0.0 0.0 0.00 0.00 0.00 33 1006.8
20260505181936 84 84 0.0 0.0 0.00 0.00 0.00 33 1006.9
20260505181436 83 210 0.0 0.0 0.00 0.00 0.00 34 1006.8
20260505180936 84 246 0.0 0.0 0.00 0.00 0.00 34 1006.9
20260505180438 83 222 0.0 0.0 0.00 0.00 0.00 34 1006.8
20260505175936 83 167 0.0 0.0 0.00 0.00 0.00 34 1006.9
20260505175436 83 194 0.0 0.0 0.00 0.00 0.00 34 1006.9
20260505174936 83 220 0.0 0.0 0.00 0.00 0.00 36 1007.1
20260505174436 83 176 0.0 0.0 0.00 0.00 0.00 36 1007.1
20260505173936 83 174 0.0 0.0 0.00 0.00 0.00 36 1007.1
20260505173735 82 227 0.0 0.0 0.00 0.00 0.00 38 1007.0
20260505172926 82 247 0.0 0.0 0.00 0.00 0.00 36 1007.2
20260505172425 82 192 0.0 0.0 0.00 0.00 0.00 37 1007.2
20260505171925 82 214 0.0 0.0 0.00 0.00 0.00 36 1007.3
20260505171427 83 178 0.0 0.0 0.00 0.00 0.00 36 1007.3
20260505170926 83 283 0.0 0.0 0.00 0.00 0.00 36 1007.3
20260505170425 82 239 0.0 0.0 0.00 0.00 0.00 38 1007.4
20260505165925 82 146 0.0 0.0 0.00 0.00 0.00 38 1007.5
20260505165425 82 128 0.0 0.0 0.00 0.00 0.00 38 1007.5
20260505165222 81 80 0.0 0.0 0.00 0.00 0.00 39 1007.6
20260505164421 81 206 0.0 0.0 0.00 0.00 0.00 38 1007.7
20260505164216 81 144 0.0 0.0 0.00 0.00 0.00 39 1007.7
20260505163420 81 217 0.0 0.0 0.00 0.00 0.00 39 1007.9
20260505162921 80 200 0.0 0.0 0.00 0.00 0.00 40 1007.9
20260505162421 80 221 0.0 0.0 0.00 0.00 0.00 39 1007.9
20260505161919 80 184 0.0 0.0 0.00 0.00 0.00 39 1008.0
20260505161420 80 194 0.0 0.0 0.00 0.00 0.00 39 1008.1
20260505160920 80 269 0.0 0.0 0.00 0.00 0.00 41 1008.2
20260505160420 80 281 0.0 0.0 0.00 0.00 0.00 41 1008.2
20260505160216 80 180 0.0 0.0 0.00 0.00 0.00 41 1008.3
20260505152920 78 229 0.0 0.0 0.00 0.00 0.00 45 1008.5
20260505152419 77 85 0.0 0.0 0.00 0.00 0.00 44 1008.6
20260505151920 77 166 0.0 0.0 0.00 0.00 0.00 45 1008.8
20260505151419 76 205 0.0 0.0 0.00 0.00 0.00 45 1008.8
20260505150921 76 87 0.0 0.0 0.00 0.00 0.00 45 1008.9
20260505150418 76 87 0.0 0.0 0.00 0.00 0.00 45 1008.8